Regional Weather Roundup
Issued by NWS

Home | Current Version | Previous Version | Graphics & Text | Print | Product List | Glossary On
Versions: 1 2 3 4 5 6 7 8 9 10 11 12 13 14 15 16 17 18 19 20 21 22 23 24 25 26 27 28 29 30 31 32 33 34 35 36 37 38 39 40 41 42 43 44 45 46 47 48 49 50
000
ASUS43 KLMK 280602
RWRKY
KENTUCKY REGIONAL WEATHER ROUNDUP
NATIONAL WEATHER SERVICE LOUISVILLE KY
100 AM EST WED JAN 28 2015

NOTE "FAIR" INDICATES FEW OR NO CLOUDS BELOW 12,000 FEET
WITH NO SIGNIFICANT WEATHER AND/OR OBSTRUCTIONS TO VISIBILITY.

KYZ001>023-026-027-061>063-070>075-280700-
WESTERN AND SOUTH CENTRAL KENTUCKY

CITY           SKY/WX    TMP DP  RH WIND       PRES   REMARKS
PADUCAH        CLEAR     28  25  88 E3        30.24F
HENDERSON      CLOUDY    32  27  80 N5        30.28R WCI  27
OWENSBORO      CLOUDY    33  28  82 NE6       30.28R WCI  27
HOPKINSVILLE   CLOUDY    33  29  86 NE6       30.25S WCI  27
BOWLING GREEN  CLOUDY    33  27  78 NE5       30.25S WCI  29
GLASGOW        NOT AVBL
$$

KYZ024-025-028>034-038-045-046-053-280700-
NORTH CENTRAL KENTUCKY

CITY           SKY/WX    TMP DP  RH WIND       PRES   REMARKS
LOUISVILLE/SDF CLEAR     25  14  63 E6        30.27R WCI  18
LOUISVILLE/LOU CLEAR     25  14  63 NE7       30.27R WCI  17
FORT KNOX      CLEAR     24  14  66 NE2       30.24R
$$

KYZ035>037-039>044-047>052-055>060-089>105-280700-
NORTHEAST KENTUCKY

CITY           SKY/WX    TMP DP  RH WIND       PRES   REMARKS
LEXINGTON      CLEAR     17  11  77 NE7       30.24R WCI   8
COVINGTON      CLEAR     20  12  71 NE3       30.24S
FRANKFORT      CLEAR     21  11  65 NE3       30.24S
$$

KYZ054-064>069-076>088-106>120-280700-
SOUTHEAST KENTUCKY

CITY           SKY/WX    TMP DP  RH WIND       PRES   REMARKS
JACKSON        CLEAR     19  10  68 CALM      30.19S
LONDON         CLEAR     23  13  65 NE3       30.20S
SOMERSET       NOT AVBL
MIDDLESBORO    NOT AVBL
MONTICELLO     CLEAR     25  16  68 N3        30.25S
$$



USA.gov is the U.S. government's official web portal to all federal, state and local government web resources and services.